Location: Sternwarte Hubelmatt
(47.0367°N, 8.3053°E)
Time: 22:04:49
(UTC+02:00)

BEESAT - Visible Passes

Search period start: 22 April 2024 00:00
Search period end: 02 May 2024 00:00
Orbit: 693 x 702 km, 98.5° (Epoch: 21 April)

Date Brightness Start Highest point End Pass type
(mag) Time Alt. Az. Time Alt. Az. Time Alt. Az.
22 Apr ? 00:38:24 10° N 00:42:25 28° WNW 00:42:53 28° WNW visible
22 Apr ? 22:06:32 10° ENE 22:07:09 11° ENE 22:07:09 11° ENE visible
22 Apr ? 23:41:33 10° NNE 23:45:57 77° NNE 23:45:57 77° NNE visible
23 Apr ? 01:20:58 10° NNW 01:23:13 13° WNW 01:24:44 12° WNW visible
23 Apr ? 22:45:42 10° NE 22:49:01 26° E 22:49:01 26° E visible
24 Apr ? 00:23:04 10° N 00:27:25 38° WNW 00:27:48 37° W visible
24 Apr ? 23:26:28 10° NNE 23:30:51 64° ENE 23:30:51 64° ENE visible
25 Apr ? 01:05:11 10° NNW 01:08:18 18° WNW 01:09:38 16° W visible
25 Apr ? 22:31:00 10° NE 22:33:54 19° E 22:33:54 19° E visible
26 Apr ? 00:07:47 10° N 00:12:22 52° WNW 00:12:41 51° W visible
26 Apr ? 23:11:25 10° NNE 23:15:43 46° E 23:15:43 46° E visible
27 Apr ? 00:49:36 10° N 00:53:19 23° WNW 00:54:30 21° W visible
27 Apr ? 22:16:34 10° NE 22:18:45 14° E 22:18:45 14° E visible
27 Apr ? 23:52:32 10° N 23:57:15 73° WNW 23:57:32 70° WSW visible
28 Apr ? 01:32:45 10° NW 01:34:01 11° NW 01:35:18 10° WNW visible
28 Apr ? 22:56:26 10° NNE 23:00:33 33° E 23:00:33 33° E visible
29 Apr ? 00:34:09 10° N 00:38:17 31° WNW 00:39:21 28° W visible
29 Apr ? 23:37:20 10° NNE 23:42:05 82° ESE 23:42:22 77° SSE visible
30 Apr ? 01:16:28 10° NNW 01:19:03 15° WNW 01:21:09 11° W visible
30 Apr ? 22:41:33 10° NE 22:45:22 24° E 22:45:22 24° E visible
01 May ? 00:18:44 10° N 00:23:10 42° WNW 00:24:08 37° W visible
01 May ? 23:22:10 10° NNE 23:26:50 58° ESE 23:27:09 57° ESE visible
